Terminal Aerodrome Forecast
Issued by NWS

Home | Current Version | Previous Version | Text Only | Print | Product List | Glossary On
Versions: 1 2 3 4 5 6 7 8 9 10 11 12 13 14 15
000
FTUS45 KVEF 270524
TAFBIH
TAF
KBIH 270524Z 2706/2806 01015G22KT P6SM SCT250
     FM271600 35012G20KT P6SM FEW250
     FM272100 35011KT P6SM FEW250=

USA.gov is the U.S. government's official web portal to all federal, state and local government web resources and services.